Printer-friendly version

IAU Minor Planet Center

Minor Planet Center

MPEC 2002-N38 : 2002 NT7

The following Minor Planet Electronic Circular may be linked-to from your own Web pages, but must not otherwise be redistributed electronically.


Read MPEC 2002-N37 Read MPEC 2002-N39


M.P.E.C. 2002-N38                                Issued 2002 July 14, 14:09 UT

     The Minor Planet Electronic Circulars contain information on unusual
         minor planets and routine data on comets.  They are published
   on behalf of Commission 20 of the International Astronomical Union by the
          Minor Planet Center, Smithsonian Astrophysical Observatory,
                          Cambridge, MA 02138, U.S.A.

             Prepared using the Tamkin Foundation Computer Network

                              MPC@CFA.HARVARD.EDU
          URL http://cfa-www.harvard.edu/iau/mpc.html  ISSN 1523-6714

                                   2002 NT7

Observations:
     K02N07T* C2002 07 09.37680 22 27 17.20 -06 09 07.3          18.3        704
     K02N07T  C2002 07 09.39006 22 27 17.56 -06 09 26.4          19.2        704
     K02N07T  C2002 07 09.40335 22 27 17.80 -06 09 45.5          19.0        704
     K02N07T  C2002 07 09.41661 22 27 17.96 -06 10 05.0          18.8        704
     K02N07T  C2002 07 09.42988 22 27 18.31 -06 10 24.6          18.9        704
     K02N07T  C2002 07 13.35734 22 28 41.02 -07 55 33.5          18.0        704
     K02N07T  C2002 07 13.36774 22 28 41.16 -07 55 51.8          18.0        704
     K02N07T  C2002 07 13.37809 22 28 41.34 -07 56 09.8          17.9        704
     K02N07T  C2002 07 13.38845 22 28 41.47 -07 56 28.0          18.1        704
     K02N07T  C2002 07 13.39881 22 28 41.62 -07 56 46.1          18.3        704
     K02N07T  C2002 07 14.08980 22 28 53.33 -08 17 16.9          18.0 R      946
     K02N07T  C2002 07 14.12025 22 28 53.76 -08 18 12.5          17.9 R      946
     K02N07T  C2002 07 14.12626 22 28 53.82 -08 18 24.2          18.1 R      946
     K02N07T  C2002 07 14.26697 22 28 56.55 -08 22 37.0          17.8 R      858
     K02N07T  C2002 07 14.27015 22 28 56.65 -08 22 43.7          17.7 R      858
     K02N07T  C2002 07 14.27336 22 28 56.70 -08 22 48.9          17.5 R      858
     K02N07T  C2002 07 14.32946 22 28 57.34 -08 24 31.7          18.0 R      448
     K02N07T  C2002 07 14.33422 22 28 57.42 -08 24 40.7          18.1 R      448
     K02N07T  C2002 07 14.34216 22 28 57.58 -08 24 55.2          18.1 R      448
     K02N07T  C2002 07 14.34318 22 28 57.52 -08 24 57.7          17.2 R      734
     K02N07T  C2002 07 14.35030 22 28 57.60 -08 25 10.5          17.4 R      734

Observer details:
448 Desert Moon Observatory.  Observer B. Stevens.  0.30-m f/6.3
    Schmidt-Cassegrain + CCD.
704 Lincoln Laboratory ETS, New Mexico.  Observers M. Blythe, F. Shelly,
    M. Bezpalko, R. Huber, L. Manguso, S. Adams, J. Piscitelli.  Measurers
    J. Stuart, R. Sayer, J. B. Evans, H. Viggh.  1.0-m f/2.15 reflector + CCD.
734 Farpoint Observatory.  Observer G. Hug.  0.30-m Schmidt-Cassegrain + CCD.
858 Tebbutt Observatory, Edgewood.  Observer F. B. Zoltowski.  0.3-m f/3.3
    Schmidt-Cassegrain + CCD.
946 Ametlla de Mar.  Observer J. Nomen.  0.40-m f/2.0 Schmidt + CCD.

Orbital elements:
2002 NT7                                                             PHA 0.044A
Epoch 2002 July 5.0 TT = JDT 2452460.5                  MPC
M 294.75354              (2000.0)            P               Q
n   0.44717012     Peri.  302.09623     +0.11436004     -0.86141255
a   1.6936391      Node   131.98894     +0.97467282     +0.19365370
e   0.5268348      Incl.   41.74290     -0.19218396     +0.46953877
P   2.20           H   16.3           G   0.15
From 21 observations 2002 July 9-14.

Ephemeris:
2002 NT7                 a,e,i = 1.69, 0.53, 42                  q = 0.8014
Date    TT    R. A. (2000) Decl.     Delta      r     Elong.  Phase     V
2002 07 05    22 25.27   -04 32.2    0.975    1.776   126.2    27.5    18.7
2002 07 15    22 29.12   -08 45.1    0.821    1.709   136.6    24.1    18.2
2002 07 25    22 29.82   -15 14.2    0.686    1.638   147.9    19.2    17.5
2002 08 04    22 26.00   -24 43.3    0.578    1.565   157.7    14.3    16.9
2002 08 14    22 15.31   -37 20.6    0.507    1.489   155.3    16.5    16.6
2002 08 24    21 53.86   -51 32.8    0.480    1.411   139.6    27.7    16.7
2002 09 03    21 14.47   -64 20.5    0.492    1.331   121.0    40.5    17.0
2002 09 13    20 05.5    -73 25.8    0.529    1.249   104.5    51.2    17.3
2002 09 23    18 19.5    -78 13.8    0.577    1.167    91.1    59.3    17.6
2002 10 03    16 20.0    -79 24.8    0.622    1.087    80.4    65.2    17.8
2002 10 13    14 44.9    -78 26.5    0.657    1.009    71.8    70.0    17.9
2002 10 23    13 38.9    -76 15.5    0.677    0.938    65.0    74.1    17.9
2002 11 02    12 56.2    -72 58.1    0.679    0.877    59.9    78.1    17.9
2002 11 12    12 33.10   -68 23.3    0.662    0.831    56.3    82.2    17.9
2002 11 22    12 27.04   -62 16.5    0.629    0.806    54.5    86.1    17.8
2002 12 02    12 35.01   -54 25.1    0.584    0.803    54.6    89.1    17.8
2002 12 12    12 53.16   -44 36.5    0.536    0.825    56.9    90.1    17.7
2002 12 22    13 17.72   -32 40.2    0.493    0.867    61.8    88.1    17.6
2003 01 01    13 45.37   -18 45.7    0.465    0.926    69.1    82.9    17.4
2003 01 11    14 13.23   -03 40.0    0.457    0.995    78.1    75.2    17.2
2003 01 21    14 39.12   +11 13.4    0.474    1.072    87.3    66.5    17.2
2003 01 31    15 01.33   +24 36.2    0.514    1.152    95.3    58.4    17.3
2003 02 10    15 18.25   +35 51.6    0.572    1.234   101.4    51.6    17.5
2003 02 20    15 28.45   +44 57.4    0.643    1.316   105.5    46.4    17.7
2003 03 02    15 30.52   +52 07.0    0.724    1.396   108.0    42.5    18.0
2003 03 12    15 23.19   +57 31.1    0.812    1.475   109.1    39.5    18.3
2003 03 22    15 06.39   +61 14.1    0.905    1.551   109.3    37.3    18.5
2003 04 01    14 42.13   +63 17.9    1.002    1.625   108.6    35.6    18.8
2003 04 11    14 14.99   +63 46.4    1.102    1.696   107.3    34.3    19.1
2003 04 21    13 50.38   +62 52.7    1.206    1.764   105.5    33.3    19.3
2003 05 01    13 31.69   +60 56.1    1.313    1.829   103.3    32.4    19.6
2003 05 11    13 19.80   +58 15.9    1.423    1.891   100.7    31.6    19.8
2003 05 21    13 13.99   +55 08.6    1.535    1.951    97.9    30.9    20.0
2003 05 31    13 13.00   +51 45.4    1.649    2.007    94.8    30.2    20.2
2003 06 10    13 15.69   +48 14.1    1.766    2.061    91.5    29.5    20.4
2003 06 20    13 21.13   +44 40.4    1.885    2.112    88.1    28.7    20.6
2003 06 30    13 28.64   +41 07.7    2.005    2.160    84.5    27.9    20.7
2003 07 10    13 37.75   +37 38.6    2.125    2.205    80.8    27.1    20.9
2003 07 20    13 48.08   +34 15.2    2.246    2.247    77.0    26.1    21.0

Brian G. Marsden             (C) Copyright 2002 MPC           M.P.E.C. 2002-N38

Read MPEC 2002-N37 Read MPEC 2002-N39


Our Web policy. Index to the CBAT/MPC/ICQ pages.


Valid HTML 4.01!